Regional Weather Roundup
Issued by NWS Wakefield, VA

Home | Current Version | Previous Version | Graphics & Text | Print | Product List | Glossary On
Versions: 1 2 3 4 5 6 7 8 9 10 11 12 13 14 15 16 17 18 19 20 21 22 23 24 25 26 27 28 29 30 31 32 33 34 35 36 37 38 39 40 41 42 43 44 45 46 47 48 49 50
000
ASUS41 KAKQ 201414
RWRAKQ

REGIONAL WEATHER ROUNDUP
NATIONAL WEATHER SERVICE WAKEFIELD VA
900 AM EST MON FEB 20 2017

Note: "fair" indicates few or no clouds below 12,000 feet with no
significant weather and/or obstructions to visibility. * = Denotes
station may not report precipitation (e.g., rain,snow,etc.),
thunder or fog.

VAZ042-051-052>054-056-201500-
NORTHERN VIRGINIA

CITY           SKY/WX    TMP DP  RH WIND       PRES   REMARKS
WASH NATIONAL  MOSUNNY   57  43  59 NW13      30.24R
DULLES         MOSUNNY   54  41  61 N10       30.24R
FORT BELVOIR   SUNNY     52  42  69 CALM      30.24R
QUANTICO       SUNNY     48  43  82 CALM      30.25R
FREDERICKSBRG* SUNNY     48  42  79 CALM      30.24R
STAFFORD*      SUNNY     49  42  76 CALM      30.28R
WARRENTON      SUNNY     53  40  61 CALM      30.23R
CULPEPER*      MOSUNNY   51  41  69 CALM      30.24S
MANASSAS*      MOSUNNY   50  44  80 CALM      30.24R
LEESBURG*      SUNNY     54  45  71 MISG      30.25S
WINCHESTER     SUNNY     54  41  62 NW9       30.24R
FRONT ROYAL*   SUNNY     48  37  66 S6        30.23S
LURAY*         MOSUNNY   43  39  87 CALM      30.25R
$$

VAZ048-049-060>072-079>083-201500-
CENTRAL AND SOUTH CENTRAL VIRGINIA

CITY           SKY/WX    TMP DP  RH WIND       PRES   REMARKS
RICHMOND       MOSUNNY   58  44  60 NE7       30.23R
CHESTERFIELD*  FAIR      55  30  38 N3        30.24R
PETERSBURG*    SUNNY     54  42  64 N6        30.23R
HANOVER        MOSUNNY   55  41  59 E7        30.24R
TAPPAHANNOCK*  MOSUNNY   57  38  50 N5        30.24R
QUINTON*       FAIR      58  43  55 N8        30.23R
CHARLOTTSVILLE MOSUNNY   57  37  47 SW3       30.22R
GORDONSVILLE*  MOSUNNY   51  39  64 CALM      30.22R
ORANGE*        SUNNY     52  41  66 CALM      30.24R
LOUISA*        SUNNY     57  43  58 CALM      30.22R
BUMPASS*       FAIR      51  42  71 CALM      30.23R
FARMVILLE*     MOSUNNY   50  45  81 CALM      30.22R
CREWE*         FAIR      53  48  82 CALM      30.24R
FORT PICKETT*  FAIR      55  36  49 N6        30.23R
CHASE CITY*    FAIR      51  42  70 NW3       30.24R
CLARKSVILLE*   FAIR      50  43  76 N3        30.23R
SOUTH HILL*    SUNNY     53  43  68 N3        30.29R
LAWRENCEVILLE* FAIR      55  41  60 CALM      30.23R
EMPORIA*       SUNNY     50  41  71 CALM      30.23R
$$

VAZ088>098-201500-
SOUTHEAST VIRGINIA

CITY           SKY/WX    TMP DP  RH WIND       PRES   REMARKS
NORFOLK        SUNNY     56  43  61 N8        30.20R
VIRGINIA BEACH MOSUNNY   56  44  64 N14       30.19R
NORFOLK NAVAL  MOSUNNY   59  43  55 N8        30.22R
WEST POINT*    SUNNY     56  44  64 NW5       30.25R
SALUDA*        FAIR      54  45  71 N8        30.22R
NEWPORT NEWS   SUNNY     59  42  53 N12       30.21R
LANGLEY AFB    SUNNY     58  43  56 N16       30.19R
FORT EUSTIS    SUNNY     59  42  53 N10       30.19R
WILLIAMSBURG*  SUNNY     59  45  58 N13       30.22R
HR EXEC AP*    FAIR      57  45  62 N6        30.18S
FRANKLIN*      SUNNY     55  43  63 N10       30.21R
US460-WAKEFLD  SUNNY     60  40  47 NE10      30.21R
$$

VAZ020-022-025-037-045-201500-
WEST CENTRAL AND SOUTHWEST VIRGINIA

CITY           SKY/WX    TMP DP  RH WIND       PRES   REMARKS
STAUNTON*      CLOUDY    39  34  82 CALM      30.28R
WAYNESBORO*    SUNNY     44  36  73 CALM      30.25R
HOT SPRINGS VA CLOUDY    48  21  34 CALM      30.25R
LYNCHBURG      SUNNY     53  39  59 CALM      30.23R
DANVILLE       MOSUNNY   49  44  83 CALM      30.23R
SOUTH BOSTON*  FAIR      48  42  79 CALM      30.24R
MARTINSVILLE   SUNNY     47  40  77 CALM      30.26R
ROANOKE        MOSUNNY   51  41  68 N5        30.26R
BLACKSBURG     MOSUNNY   46  43  88 CALM      30.29R
DUBLIN*        SUNNY     47  44  90 S3        30.27R
MARION*        MOSUNNY   42  41  96 CALM      30.30R FOG
HILLSVILLE*    CLOUDY    47  43  85 CALM      30.26R
RICHLANDS*     FAIR      48  44  88 CALM      30.28R
WISE*          CLOUDY    52  46  82 CALM      30.28S
ABINGDON*      SUNNY     45  45 100 E6        30.28R
$$

MDZ021>025-VAZ099-100-201500-
SOUTHERN MARYLAND AND THE DELMARVA PENINSULA

CITY           SKY/WX    TMP DP  RH WIND       PRES   REMARKS
PATUXENT RIVER SUNNY     54  44  69 NW9       30.22R
BAY BRIDGE APT SUNNY     52  37  58 N8        30.24R
LEONARDTOWN    SUNNY     55  41  58 N7        30.24R
DOVER          SUNNY     52  40  64 N13       30.21R
GEORGETOWN     SUNNY     54  38  54 N6        30.22R
EASTON         SUNNY     54  39  58 NE5       30.26R
CAMBRIDGE      SUNNY     50  41  71 N5        30.21R
SALISBURY      SUNNY     54  39  57 N8        30.20R
OCEAN CITY     SUNNY     54  38  54 N9        30.21R
WALLOPS ISLAND SUNNY     54  42  64 N8        30.20R
ACCOMACK*      SUNNY     55  44  66 N8G17     30.20R
$$

NCZ012>017-030>032-201500-
NORTH CENTRAL AND EASTERN NORTH CAROLINA

CITY           SKY/WX    TMP DP  RH WIND       PRES   REMARKS
ROANOKE RAPIDS FAIR      54  43  66 CALM      30.23R
RALEIGH        MOSUNNY   56  42  59 N5        30.23R
ELIZABETH CITY SUNNY     56  45  66 N14       30.18S
AHOSKIE*         N/A     56  40  55 NE8       30.20R
EDENTON*       SUNNY     57  45  64 N7        30.19S
CURRITUCK*     SUNNY     56  44  64 N10       30.19S
KILL DEVIL HLS NOT AVBL
MANTEO         SUNNY     56  44  64 NE17G23   30.17F
CAPE HATTERAS  SUNNY     58  45  62 N10       30.17R HAZE
TARBORO*       NOT AVBL
GOLDSBORO      SUNNY     57  43  59 NE7       30.20R
WASHINGTON     SUNNY     55  44  68 N5        30.19S
GREENVILLE     SUNNY     57  50  77 NE6       30.21R
NEW BERN       SUNNY     57  47  69 NE8       30.19R
WILMINGTON     SUNNY     58  45  62 NE8       30.20R
$$

VAZ048-201500-
ELSEWHERE

CITY           SKY/WX    TMP DP  RH WIND       PRES   REMARKS
HARRISBURG PA  SUNNY     50  33  52 N10       30.24R
BALTIMORE      MOSUNNY   55  39  54 N5        30.23R
ANNAPOLIS      SUNNY     52  39  61 NW7       30.23R
ANDREWS AFB    SUNNY     56  41  57 NW13      30.22R
PHILADELPHIA   SUNNY     50  32  50 N14       30.23R
HENDERSON NC   SUNNY     51  40  64 N5        30.24R
GREENSBORO     PTSUNNY   54  43  66 NE5       30.23R
ROCKY MOUNT    SUNNY     56  44  64 N7        30.23R
$$

VAZ100-201500-
MARINE

STATION/POSITION TIME  TEMP    WIND        PRES    WAVE   SWELL
                       AIR SEA DIR/SP/G            HT/PER HT/PER
                 (UTC) (F)     (DEG/KT/KT) (MB)    (FT/S) (FT/S)
CAPE MAY NJ      1348   49 41  340/  4/  5 1022.7R
LEWES DE         1348   45 42  340/  8/ 10 1023.1R
OCEAN-CITY-INLET 1348   50 42   10/  7/  8 1023.2R
WACHAPREAGUE VA  1348   55 49  340/  6/ 11 1022.3R
THOMAS POINT MD  1400   51 41  360/  5/  6   N/A
GOOSES REEF MD   1400   46 41  300/  6/  6 1024.3    0
COVE POINT MD    1348   52     340/ 12/ 12 1024.0R
SOLOMONS ISLAND  1348   53 43  290/  4/  5   N/A
BISHOPS HEAD MD  1348   56 44  340/ 10/ 13 1023.4R
PINEY POINT MD   1348          340/  5/  5   N/A
POTOMAC MD       1400   48 43  300/  6/  8 1022.7    0
CAMBRIDGE MD     1348   46 40  330/  4/  5 1022.7R
LEWISETTA VA     1348   51 45  360/  7/ 10 1023.4R
RAPPAHANNOCK LGT 1348          330/ 14/ 15 1023.2R
YORK RVR RNG VA  1348   52     360/ 14/ 15 1021.9R
YORKTOWN VA      1348   56 46  350/ 13/ 16 1022.6R
JAMESTOWN VA     1400   58 49  350/  8/ 12   N/A     0
DOMINION TERM VA 1348   58      20/  9/ 12 1022.7R
KIPTOPEKE VA     1348      45   20/  8/ 12   N/A
CHES BAY BRIDGE  1348   50 47   10/  7/ 12 1022.5R
CAPE HENRY VA    1348   51     330/ 12/ 14   N/A
WILLOUBY STN VA  1348   56     360/ 12/ 14 1023.4R
S CRANEY ISL VA  1348   55      10/  9/ 12 1022.3R
CAPE HENRY BUOY  1342      47                N/A     1/ 7
OFFSHORE WE BUOY 1351      47                N/A     2/ 7
64NM E OF VA BCH 1350   52 51   10/ 14/ 17 1021.2R   3/ 4
DUCK PIER NC     1348   50 48   10/ 10/ 12 1021.4R
44100 DUCK FRF   1335      48                N/A     2/ 3
44056 DUCK FRF   1400      49                N/A     1/ 3
OREGON INLET NC  1336   53 51  350/ 12/ 17 1021.4R
HATTERAS NC      1348   54 57  360/  9/ 11 1021.2R
DIAMOND SHLS NC  1350   60 64   10/ 17/ 21 1021.1R   3/ 4   2/ 6
CAPE LOOKOUT NC  1400   58      30/ 15/ 18 1021.0R
$$



USA.gov is the U.S. government's official web portal to all federal, state and local government web resources and services.